Regional Weather Roundup
Issued by NWS

Home | Current Version | Previous Version | Text Only | Print | Product List | Glossary On
Versions: 1 2 3 4 5 6 7 8 9 10 11 12 13 14 15 16 17 18 19 20 21 22 23 24 25 26 27 28 29 30 31 32 33 34 35 36 37 38 39 40 41 42 43 44 45 46 47 48 49 50
000
ASUS43 KDTX 062010
RWRMI
MICHIGAN HOURLY REGIONAL WEATHER ROUNDUP
NATIONAL WEATHER SERVICE DETROIT/PONTIAC MI
300 PM EST TUE DEC 06 2016

NOTE: "FAIR" INDICATES FEW OR NO CLOUDS BELOW 12,000 FEET WITH NO
SIGNIFICANT WEATHER AND/OR OBSTRUCTION TO VISIBILITY.

MIZ047>049-052>055-059>063-066>070-074>076-081>083-062100-
SOUTHEAST LOWER MICHIGAN

CITY           SKY/WX    TMP DP  RH WIND       PRES   REMARKS
ADRIAN         LGT RAIN  37  37 100 CALM      29.71R FOG
ALMA           CLOUDY    38  35  88 E6        29.71F WCI  34
ANN ARBOR      LGT RAIN  39  37  92 CALM      29.71R FOG
BAD AXE        CLOUDY    39  32  75 SE9       29.75R WCI  33
CARO           CLOUDY    39  33  79 E6        29.72S WCI  35
DETROIT CITY   LGT RAIN  39  38  96 E7        29.70F FOG     WCI  34
DETROIT        LGT RAIN  39  38  96 NE3       29.70S FOG
FLINT          LGT RAIN  39  36  89 E6        29.72S WCI  35
GROSSE ILE     MIX PCPN  39  37  93 SE8       29.68S WCI  34
HILLSDALE      CLOUDY    36  34  93 CALM      29.67F FOG
HOWELL         DRIZZLE   38  36  91 CALM      29.70S

CITY           SKY/WX    TMP DP  RH WIND       PRES   REMARKS
JACKSON        CLOUDY    39  34  82 E7        29.68F WCI  34
LAMBERTVILLE   DRIZZLE   39  37  90 CALM      29.70R
LANSING        CLOUDY    41  33  73 CALM      29.71F
LAPEER         NOT AVBL
MASON          CLOUDY    40  35  85 SE6       29.69F
MONROE         LGT RAIN  39  38  97 E3        29.69R
PONTIAC        LGT RAIN  38  35  89 E5        29.69R FOG     WCI  34
PORT HOPE        N/A     41  33  73 SE14G20   29.74R
PORT HURON     LGT RAIN  37  36  93 E7        29.71F WCI  32
TRI CITIES     CLOUDY    40  34  79 E7        29.73F
MIDLAND        CLOUDY    39  32  75 E5        29.72F
TROY           LGT RAIN  39  36  87 E6        29.71S WCI  35
SAGINAW HB     CLOUDY    41  32  70 E3        29.72S
$$
MIZ043>046-050>051-056>058-064>065-071>073-077>080-062100-
SOUTHWEST LOWER MICHIGAN

CITY           SKY/WX    TMP DP  RH WIND       PRES   REMARKS
BATTLE CREEK   CLOUDY    41  35  79 S5        29.69F
BENTON HARBOR  SUNNY     42  31  64 SW6       29.71S
BIG RAPIDS     CLOUDY    39  32  77 SE7       29.69F WCI  34
COLDWATER        N/A    N/A N/A N/A MISG        N/A
FREMONT        CLOUDY    39  30  69 SE8       29.69F WCI  33
HOLLAND        MOSUNNY   40  34  79 SE3       29.70F
GRAND RAPIDS   CLOUDY    39  32  76 E7        29.70F WCI  34
IONIA          CLOUDY    37  33  87 E6        29.69F WCI  32
KALAMAZOO      CLOUDY    41  32  70 S3        29.69F
LUDINGTON      MOSUNNY   42  32  67 SE10      29.67F
MARSHALL       CLOUDY    40  35  81 CALM      29.69F
MOUNT PLEASANT CLOUDY    39  33  81 E6        29.71F WCI  34
MUSKEGON       PTSUNNY   42  33  70 SE10      29.69F
SOUTH HAVEN    PTSUNNY   41  33  71 S3        29.70S
$$
MIZ016>042-062100-
NORTHERN LOWER MICHIGAN

CITY           SKY/WX    TMP DP  RH WIND       PRES   REMARKS
ALPENA         CLOUDY    41  31  67 SE20      29.75F
BEAVER ISLAND  SUNNY     42  32  69 SE16G24   29.66F
BELLAIRE       SUNNY     42  32  66 SE10G18   29.68F
CADILLAC       PTSUNNY   36  30  80 SE9G16    29.68S WCI  29
CHARLEVOIX     SUNNY     42  31  63 SE10      29.70S
FRANKFORT      SUNNY     43  31  63 SE9       29.65F
GAYLORD        MOSUNNY   39  30  70 SE14G24   29.68F WCI  31
GRAYLING       PTSUNNY   39  32  77 SE13      29.70F WCI  31
HARBOR SPRINGS SUNNY     42  32  67 SE9       29.69F
HOUGHTON LAKE  CLOUDY    38  30  73 E14       29.71F WCI  30
MANISTEE       MOSUNNY   43  30  60 SE10      29.65F
OSCODA         CLOUDY    41  32  69 SE7       29.75S
PELLSTON       SUNNY     41  30  65 SE16G24   29.69F
ROGERS CITY    CLOUDY    42  32  67 SE10G24   29.75F
TRAVERSE CITY  PTSUNNY   43  30  60 S9        29.68F
$$
MIZ007>008-015-062100-
EASTERN UPPER MICHIGAN

CITY           SKY/WX    TMP DP  RH WIND       PRES   REMARKS
KINROSS        CLOUDY    39  31  72 SE21      29.71F WCI  29
MACKINAC ISLAN MOSUNNY   40  31  72 SE15G26   29.69F WCI  31
NEWBERRY       CLOUDY    38  33  83 SE16G22   29.66F WCI  29
S. S. MARIE    CLOUDY    39  35  86 SE13G18   29.71F WCI  31
MUNISING         N/A     40  30  67 S10G24    29.62F WCI  33
$$
MIZ004>006-011>014-085-062100-
CENTRAL UPPER MICHIGAN

CITY           SKY/WX    TMP DP  RH WIND       PRES   REMARKS
MANISTIQUE     PTSUNNY   39  32  76 S15G22    29.65F WCI  31
ESCANABA       CLOUDY    38  31  76 S16G22    29.65S WCI  29
MENOMINEE      CLOUDY    37  32  82 SW9       29.66S HAZE    WCI  30
SAWYER-GWINN   CLOUDY    36  30  80 S12G21    29.60S WCI  27
$$
MIZ001>003-009>011-084-062100-
WESTERN UPPER MICHIGAN

CITY           SKY/WX    TMP DP  RH WIND       PRES   REMARKS
IRON MOUNTAIN  LGT SNOW  32  29  88 S8        29.60S VSB 3/4 WCI  25
HOUGHTON       LGT SNOW  34  29  82 S14       29.55F VSB 3/4 WCI  25
COPPER HARBOR    N/A     40  32  73 S9G20     29.55F WCI  34
IRONWOOD       CLOUDY    29  20  69 SW14      29.55S WCI  18
$$

ABBREVIATIONS USED IN REMARKS
   TC - TEMPERATURE IN CELSIUS
  WCI - WIND CHILL INDEX
   HX - HEAT INDEX
  VSB - VISIBILITY




USA.gov is the U.S. government's official web portal to all federal, state and local government web resources and services.